Вернуться в каталог

SL-12 R/B

AUX MOTOR

АктивенLEO
NORAD 15335·ROCKET BODY·🇷🇺 Russia

Запущен Sep 28, 1984 с Baikonur Cosmodrome

Loading…

Ближайшие Пролёты (ближайшие 24 часа)

TLE

СвежийSource: Space-Track

Эпоха: Sep 14, 2026, 14:48 UTC

1 15335U 84106C   26257.61705353 -.00000043  00000-0  18790-4 0  9995
2 15335  66.5511 116.2581 0014237 197.3060 194.1134 14.23165272176875

Отслеживайте SL-12 R/B в реальном времени с AllMySat

Download on the App Store